Weather in Fedoskino

Russia / Mari El Republic     56°37′50″N   48°00′42″E
temp.,
°C
wind,
m/s
gust,
m/s
humid.,
%
clouds,
%
prec.,
mm/h
press.,
hPa
HPBL,
m
1 march, mon
mon100:00−18n239896 0.1 101832
03:00−20n239980 0.1 101928
06:00−21n229953 0.0 102020
09:00−17wnw119435 0.0 1021102
12:00−12wsw248863 0.0 1020390
15:00−9sw359282 0.1 1018423
18:00−10sw4995100 0.1 1016313
21:00−9ssw51195100 0.1 1012396
2 march, tue
tue200:00−5sw61295100 1.9 1008627
03:00−3sw61396100 3.8 1004625
06:00−1sw61197100 1.6 1000563
09:000w61198100 2.8 999648
12:000w51099100 0.9 997733
15:000wnw61092100 1.3 997870
18:00−2wnw51292100 0.2 998575
21:00−4wnw4119197 0.3 999377
3 march, wed
wed300:00−3wnw4119099 0.0 999464
03:00−7wnw4109591 0.1 1000268
06:00−7wnw5119499 0.0 1000410
09:00−6nw5109296 0.1 1002556
12:00−5nw6989100 0.2 1003746
15:00−5wnw6988100 0.3 1004846
18:00−6wnw4992100 0.1 1005647
21:00−8w31093100 0.2 1005382
4 march, thu
thu400:00−8wsw4109595 0.1 1003323
03:00−8wsw379696 0.3 1003177
06:00−8wsw3796100 0.2 1002163
09:00−5sw499596 0.3 1000461
12:00−3ssw61195100 0.4 997824
15:00−2sw71395100 1.7 993896
18:00−1wsw61294100 1.1 991861
21:00−1sw51292100 1.1 990792
5 march, fri
fri500:00−3w41286100 0.4 989585
03:00−8w7158695 0.4 992804
06:00−9wnw71488100 0.1 997801
09:00−9wnw6118996 0.1 1002609
12:00−7wnw5986100 0.0 1005790
15:00−6wnw588366 0.0 1008833
18:00−9w369385 0.0 1010105
21:00−9w389593 0.1 1012254